Total_Precipitation_Accumulation
0.83 0.82 0.77 0.84 0.82 0.84 0.92 0.89 0.77 0.78 0.73 0.61 0.58 0.60 0.69 0.68 0.81 0.89 1.05 1.37 1.82 2.24 2.30 2.11 1.84 1.65 1.66 1.70 1.67 1.70 1.69 1.75 1.88 2.02 1.90 1.79 1.77 1.64 1.52 1.74 1.95 2.15 2.30
0.67 0.79 0.79 0.87 0.82 0.89 0.98 0.86 0.79 0.81 0.81 0.69 0.62 0.66 0.69 0.71 0.79 0.93 1.04 1.24 1.48 1.93 2.36 2.42 2.24 2.03 1.87 1.90 1.96 2.04 1.86 1.74 1.78 1.96 1.92 1.74 1.66 1.54 1.45 1.57 1.88 2.01 2.25
0.64 0.77 0.83 0.86 0.87 0.91 0.93 0.94 0.94 0.88 0.80 0.72 0.69 0.67 0.67 0.72 0.89 1.01 1.05 1.19 1.20 1.28 1.76 2.34 2.56 2.49 2.27 2.23 2.21 2.14 2.01 1.88 1.77 1.82 1.87 1.71 1.60 1.44 1.42 1.44 1.61 1.64 1.89
0.69 0.88 0.94 0.85 0.92 1.03 1.09 1.12 1.09 1.00 0.90 0.87 0.89 0.85 0.78 0.82 1.03 1.12 1.06 1.02 1.06 0.99 1.12 1.47 1.82 2.11 2.39 2.48 2.46 2.29 2.12 1.99 1.76 1.73 1.73 1.71 1.55 1.33 1.27 1.32 1.43 1.49 1.57
0.89 1.06 1.14 1.05 1.04 1.20 1.20 1.09 1.14 1.18 1.09 1.11 1.07 1.07 0.99 0.99 1.05 1.01 1.02 1.09 1.14 1.12 1.12 0.99 1.13 1.38 1.91 2.34 2.57 2.70 2.41 2.28 2.02 1.88 1.75 1.56 1.42 1.32 1.26 1.24 1.28 1.37 1.41
1.13 1.29 1.39 1.35 1.31 1.45 1.47 1.35 1.48 1.49 1.40 1.46 1.32 1.22 1.17 1.15 1.13 1.10 1.11 1.20 1.31 1.21 1.22 1.10 1.03 0.89 1.13 1.60 2.15 2.60 2.54 2.45 2.24 1.96 1.84 1.52 1.39 1.26 1.20 1.22 1.25 1.29 1.35
1.53 1.64 1.62 1.85 1.92 1.91 1.92 1.87 2.01 2.05 1.80 1.63 1.95 1.93 1.54 1.25 1.13 1.21 1.30 1.35 1.46 1.46 1.39 1.32 1.24 1.06 0.96 1.08 1.43 2.18 2.43 2.42 2.23 2.04 2.03 1.76 1.46 1.31 1.23 1.25 1.32 1.30 1.38
1.88 1.80 1.88 2.11 2.17 2.29 2.39 2.24 2.38 2.48 2.16 1.86 2.30 2.77 2.34 1.91 1.31 1.09 1.23 1.38 1.55 1.57 1.47 1.36 1.34 1.30 1.21 1.21 1.15 1.55 2.01 2.33 2.31 2.17 2.13 2.06 1.70 1.50 1.30 1.28 1.33 1.33 1.33
2.28 2.16 2.11 2.25 2.28 2.36 2.58 2.62 2.57 2.69 2.63 2.28 2.24 2.74 2.71 2.37 1.96 1.43 1.27 1.34 1.51 1.61 1.64 1.64 1.48 1.46 1.36 1.38 1.38 1.18 1.31 1.68 2.06 2.16 2.15 2.14 1.98 1.73 1.48 1.36 1.36 1.29 1.19
2.44 2.39 2.33 2.40 2.42 2.39 2.53 2.61 2.58 2.81 3.03 2.77 2.49 2.26 2.21 2.26 2.32 1.94 1.52 1.39 1.52 1.60 1.71 1.67 1.69 1.74 1.69 1.60 1.55 1.26 1.07 1.17 1.54 1.97 2.14 2.25 2.19 1.95 1.68 1.53 1.56 1.41 1.28
2.19 2.15 2.25 2.41 2.43 2.42 2.44 2.61 2.72 2.92 2.94 2.88 2.75 2.60 2.43 2.27 1.94 2.02 1.93 1.68 1.64 1.55 1.66 1.82 1.89 1.93 1.86 1.93 1.98 1.50 1.15 1.06 1.27 1.65 2.09 2.31 2.37 2.31 2.03 1.77 1.68 1.67 1.62
2.02 1.92 2.02 2.11 2.20 2.27 2.26 2.31 2.46 2.62 2.82 2.97 2.90 2.72 2.66 2.60 2.41 2.25 1.95 1.81 1.87 1.71 1.61 1.64 1.74 1.83 1.97 2.02 1.91 1.73 1.28 1.09 1.16 1.26 1.53 2.00 2.33 2.53 2.44 2.27 2.11 1.98 1.97
1.95 1.89 1.85 1.91 1.98 2.02 2.12 2.30 2.30 2.34 2.53 2.73 2.74 2.67 2.67 2.52 2.44 2.48 2.25 1.91 1.82 1.71 1.62 1.55 1.53 1.62 1.72 1.83 1.87 1.76 1.33 1.20 1.15 1.10 1.05 1.16 1.55 2.03 2.43 2.56 2.56 2.36 2.34
1.57 1.55 1.60 1.68 1.82 1.91 2.00 2.15 2.21 2.17 2.25 2.32 2.35 2.49 2.58 2.49 2.29 2.24 2.26 2.33 2.08 1.84 1.66 1.51 1.44 1.47 1.55 1.59 1.71 1.70 1.27 1.13 1.09 1.03 0.98 0.86 0.93 1.18 1.61 1.97 2.11 2.24 2.45
1.19 1.22 1.28 1.41 1.61 1.73 1.78 1.89 2.04 2.04 2.09 2.09 2.16 2.23 2.25 2.31 2.18 2.02 1.99 2.09 2.22 2.02 1.86 1.67 1.46 1.27 1.36 1.37 1.44 1.26 1.21 1.14 1.03 0.96 0.92 0.84 0.78 0.82 1.03 1.36 1.48 1.45 1.56
1.06 1.16 1.18 1.25 1.37 1.47 1.56 1.72 1.86 1.95 1.98 1.95 1.94 2.01 2.05 2.11 2.13 2.10 2.06 2.06 2.05 1.99 1.89 1.71 1.42 1.15 1.22 1.29 1.44 1.25 1.28 1.37 1.16 1.01 0.90 0.88 0.85 0.80 0.84 0.97 1.06 0.96 0.92
1.07 1.13 1.17 1.21 1.23 1.32 1.37 1.48 1.63 1.78 1.80 1.81 1.71 1.74 1.84 1.91 2.08 2.12 2.09 2.05 2.02 1.93 1.81 1.72 1.47 1.24 1.24 1.32 1.39 1.31 1.35 1.35 1.18 1.09 1.00 0.94 0.85 0.88 0.91 0.94 1.01 0.93 0.79
0.94 1.03 1.14 1.13 1.12 1.17 1.26 1.36 1.45 1.52 1.63 1.59 1.50 1.52 1.62 1.69 1.83 1.95 2.05 1.96 1.96 1.91 1.90 1.85 1.62 1.39 1.32 1.34 1.41 1.39 1.29 1.27 1.24 1.23 1.12 1.05 0.96 0.89 0.94 0.93 1.03 1.07 0.99
0.86 0.98 1.12 1.24 1.16 1.06 1.16 1.25 1.29 1.32 1.34 1.29 1.27 1.32 1.37 1.44 1.57 1.68 1.78 1.87 1.88 1.81 1.91 1.90 1.69 1.45 1.33 1.31 1.34 1.33 1.30 1.36 1.26 1.26 1.23 1.12 1.08 1.00 1.00 1.00 0.99 1.07 1.06
0.70 0.75 0.89 1.01 1.07 1.04 1.01 1.02 1.05 1.20 1.21 1.12 1.04 1.03 1.06 1.08 1.19 1.33 1.44 1.59 1.75 1.88 1.96 1.98 1.83 1.54 1.36 1.33 1.37 1.43 1.44 1.38 1.39 1.26 1.26 1.25 1.23 1.19 1.12 1.11 1.02 0.99 1.04
0.56 0.63 0.79 0.96 1.02 1.03 1.05 1.05 0.98 1.02 1.08 1.11 1.04 0.93 0.85 0.85 0.94 1.03 1.13 1.39 1.59 1.75 1.90 1.96 1.88 1.70 1.52 1.43 1.38 1.38 1.47 1.58 1.59 1.42 1.36 1.27 1.23 1.11 1.01 1.04 1.03 0.96 0.94
0.52 0.54 0.63 0.79 0.94 0.92 1.08 1.13 1.05 0.96 0.97 0.98 0.98 0.96 0.95 0.91 0.79 0.75 0.82 0.99 1.23 1.44 1.63 1.75 1.79 1.65 1.48 1.44 1.47 1.47 1.46 1.54 1.60 1.45 1.41 1.48 1.41 1.27 1.13 1.02 1.09 1.01 0.94
0.51 0.51 0.57 0.70 0.84 0.98 1.01 0.90 0.97 0.99 0.95 0.96 0.93 0.92 0.95 0.94 0.99 0.89 0.83 0.81 0.85 1.02 1.27 1.48 1.52 1.48 1.54 1.46 1.41 1.36 1.34 1.34 1.36 1.38 1.40 1.45 1.44 1.32 1.15 1.09 1.19 1.13 1.06
0.50 0.51 0.53 0.57 0.65 0.84 0.89 0.79 0.97 1.01 1.01 1.01 0.99 1.00 1.03 1.06 1.02 1.13 1.11 1.01 0.94 0.93 1.03 0.98 1.08 1.37 1.48 1.49 1.48 1.48 1.51 1.43 1.36 1.35 1.30 1.34 1.29 1.25 1.13 1.06 1.12 1.06 1.00
0.50 0.48 0.47 0.48 0.52 0.61 0.70 0.67 0.81 0.96 1.07 1.07 0.97 0.95 1.01 1.03 1.23 1.27 1.18 1.15 1.08 1.02 1.16 1.17 1.19 1.26 1.33 1.34 1.34 1.42 1.48 1.43 1.37 1.31 1.24 1.16 1.12 1.21 1.25 1.16 1.12 1.17 1.11
0.58 0.51 0.46 0.45 0.48 0.51 0.64 0.53 0.64 0.81 0.99 1.12 1.05 0.98 1.13 1.09 1.10 1.05 1.02 1.20 1.18 1.07 0.98 0.94 0.96 1.02 1.04 1.10 1.17 1.19 1.34 1.36 1.30 1.30 1.19 1.14 1.10 1.18 1.25 1.17 1.05 1.03 1.07